This is the latest recevied weather packets stored in our database for station/object OH7GGX-14. If no packets are shown the sender has not sent any weather packets the latest 10 day(s).
| Time | Temp. | Humidity | Pressure | Rain* | Wind** | Luminosity | Snow |
|---|---|---|---|---|---|---|---|
| 1777866696 | 0° C | 99% | 1009.1 hPa | 0 mm | - | - | - |
| 1777847497 | -1.11° C | 99% | 1009.4 hPa | 0 mm | - | - | - |
| 1777846297 | -0.56° C | 99% | 1009.3 hPa | 0 mm | - | - | - |
| 1777845697 | -0.56° C | 99% | 1009.3 hPa | 0 mm | - | - | - |
| 1777845097 | -0.56° C | 99% | 1009.4 hPa | 0 mm | - | - | - |
| 1777843297 | 0° C | 96% | 1009.2 hPa | 0 mm | - | - | - |
| 1777842697 | 0° C | 95% | 1009.3 hPa | 0 mm | - | - | - |
| 1777842097 | 0.56° C | 94% | 1009.3 hPa | 0 mm | - | - | - |
| 1777840897 | 1.11° C | 92% | 1009.3 hPa | 0 mm | - | - | - |
| 1777840297 | 1.11° C | 91% | 1009.1 hPa | 0 mm | - | - | - |
| 1777839697 | 1.67° C | 89% | 1009.1 hPa | 0 mm | - | - | - |
| 1777839097 | 1.67° C | 88% | 1009.1 hPa | 0 mm | - | - | - |
| 1777838497 | 2.22° C | 87% | 1008.9 hPa | 0 mm | - | - | - |
| 1777835497 | 3.89° C | 77% | 1008.8 hPa | 0 mm | - | - | - |
| 1777834897 | 4.44° C | 74% | 1008.8 hPa | 0 mm | - | - | - |
| 1777833097 | 6.67° C | 67% | 1008.6 hPa | 0 mm | - | - | - |
| 1777831897 | 8.33° C | 62% | 1008.5 hPa | 0 mm | - | - | - |
| 1777827097 | 11.67° C | 56% | 1007.8 hPa | 0 mm | - | - | - |
| 1777825298 | 12.22° C | 55% | 1007.7 hPa | 0 mm | - | - | - |
| 1777824698 | 12.22° C | 55% | 1007.6 hPa | 0 mm | - | - | - |
| 1777824098 | 12.22° C | 55% | 1007.5 hPa | 0 mm | - | - | - |
| 1777823498 | 12.22° C | 54% | 1007.6 hPa | 0 mm | - | - | - |
| 1777822898 | 12.22° C | 53% | 1007.5 hPa | 0 mm | - | - | - |
| 1777822298 | 12.22° C | 54% | 1007.5 hPa | 0 mm | - | - | - |
| 1777821698 | 12.78° C | 53% | 1007.5 hPa | 0 mm | - | - | - |
* Rain latest hour (hover to see other rain measurements)
** Current wind speed in m/s (hover to see current wind gust speed)